www.pogodaiklimat.ru

Погода и климат >> Архив погоды >> Иран >> Эскандар Кола


ПОГОДА в Эскандар Кола

  • Прогноз погоды в Эскандар Кола
  • Монитор погоды в Эскандар Кола

АРХИВ ПОГОДЫ в Эскандар Кола

Время (UTC), дата Ветер
(напр.,м/с)
 
Видим.   Явления Облачность Т
(С)
Тd
(С)
f
(%)
Тe
(С)
Тes
(С)
Комфортность P
(гПа)
Po
(гПа)
Тmin
(С)
Tmax
(С)
R
(мм)
R24
(мм)
S
(см)
09 14.01 З 5 10 км 9/4 1050 м
[Cu med, cong Ac As]
+14.0 +10.0 77 +12 +13 1007.8 1006.0
12 14.01 З 4 10 км 9/4 1050 м
[Sc Ac As]
+14.4 +10.2 76 +13 +13 1008.4 1006.6
15 14.01 СЗ 3 10 км 10/6 750 м
[Cb calv As op]
+12.4 +10.9 91 +11 +11 1012.8 1011.0 +15.4
18 14.01 В 3 6000 м слаб. дождь 10/8 660 м
[Cb calv As op]
+10.6 +10.2 97 +8 +8 1013.5 1011.7 4
21 14.01 ЮВ 2 10 км в посл. час дождь ясно +7.6 +7.2 97 +5 +5 1012.8 1011.0
00 15.01 Ю 2 10 км {дождь} 8/0
[Ac As]
+11.2 +9.2 87 +10 +10 1012.4 1010.6 0.1
03 15.01 Ю 2 10 км {дождь} 8/0
[Ac As]
+11.2 +9.2 87 +10 +10 1012.4 1010.6 0.1
06 15.01 З 2 40 км 3/0
[Cs]
+9.8 +7.3 84 +8 +11 1013.2 1011.4
09 15.01 штиль 0 35 км ясно +18.0 +10.6 62 +18 +27 1012.7 1010.9
12 15.01 СВ 3 30 км 3/0
[Ci fib]
+20.0 +7.6 45 +21 +22 комфорт 1012.5 1010.8
15 15.01 ЮВ 2 15 км ясно +12.6 +5.8 63 +12 +12 1014.0 1012.2 +20.4
18 15.01 штиль 0 10 км ясно +7.8 +4.1 77 +7 +7 1013.3 1011.5
21 15.01 ЮВ 2 10 км ясно +5.4 +3.0 85 +3 +3 1010.6
00 16.01 штиль 0 10 км ясно +3.8 +1.2 83 +3 +3 1011.2 1009.4
03 16.01 ЮВ 3 20 км ясно +3.8 0.0 76 0 0 1009.7 1007.9 +2.0
06 16.01 штиль 0 10 км ясно +14.2 +3.0 47 +14 +19 1009.8 1008.0
09 16.01 штиль 0 20 км ясно +19.6 +15.2 76 +21 +30 комфорт 1008.0 1006.2
12 16.01 СВ 3 10 км ясно +23.0 +14.6 59 +27 +28 душно 1006.1 1004.4
15 16.01 ЮЗ 2 10 км ясно +12.8 +9.3 79 +12 +12 1007.2 1005.4 +24.0
18 16.01 штиль 0 10 км 9/4 1200 м
[Sc Ac As]
+11.8 +10.6 92 +11 +11 1005.6 1003.8
21 16.01 ЮВ 2 10 км 9/4 1200 м
[Sc Ac As]
+8.4 +6.7 89 +6 +6 1004.8 1003.0
00 17.01 штиль 0 10 км 9/4 1200 м
[Sc Ac As]
+8.0 +5.8 86 +7 +7 1005.0 1003.2
03 17.01 штиль 0 10 км 3/3 1200 м
[Sc]
+7.0 +4.7 85 +6 +6 1000.2 998.4 +7.0
06 17.01 З 8 10 км 1/1 750 м
[Cu hum]
+13.6 +8.4 71 +11 +12 1001.4 999.6
09 17.01 З 3 10 км 10/6 750 м
[Cb calv As op]
+13.0 +11.5 91 +12 +12 1005.5 1003.8
12 17.01 СЗ 2 10 км 10/6 750 м
[Cb calv As op]
+12.0 +11.2 95 +11 +11 1004.2 1002.4
15 17.01 СЗ 2 2000 м слаб. дождь 10/4 750 м
[Sc As op]
+10.2 +9.8 97 +9 +9 1005.6 1003.8 +14.0
18 17.01 З 9 5000 м сильн. дождь 10/8 540 м
[Cb calv As op]
+8.0 +8.0 100 +3 +3 1009.8 1008.0 29
21 17.01 З 7 6000 м дождь 10/8 570 м
[Cb calv As op]
+6.6 +6.6 100 +1 +1 1014.8 1013.0
00 18.01 СЗ 11 6000 м дождь 10/8 570 м
[Cb calv As op]
+6.0 +6.0 100 -1 -1 1018.0 1016.2 14
03 18.01 З 5 5000 м дождь 10/8 570 м
[Cb calv As op]
+5.6 +5.6 100 +1 +1 1020.1 1018.2 +5.6
06 18.01 ЮЗ 5 4000 м слаб. дождь 10/4 900 м
[Sc As op]
+6.0 +3.6 85 +2 +2 1022.5 1020.6 9
09 18.01 З 5 4000 м слаб. дождь 10/4 750 м
[Sc As op]
+6.8 +6.4 97 +2 +3 1022.4 1020.5
12 18.01 З 3 4000 м слаб. дождь 10/5 750 м
[Sc As op]
+6.2 +5.3 94 +3 +3 1022.7 1020.9 5
15 18.01 ЮЗ 2 3000 м слаб. дождь 10/5 750 м
[Sc As op]
+5.2 +4.2 93 +2 +2 1024.6 1022.8 +7.0
18 18.01 штиль 0 9000 м слаб. дождь 10/4 900 м
[Sc As op]
+4.8 +2.8 87 +4 +4 1024.3 1022.4 2
21 18.01 штиль 0 10 км {дождь} 9/4 900 м
[Sc As op]
+3.8 +1.7 86 +3 +3 1024.3 1022.4
00 19.01 штиль 0 10 км {дождь} 10/4 900 м
[Sc As op]
+4.0 +1.4 83 +3 +3 1024.3 1022.4 0.1
03 19.01 штиль 0 10 км 5/3 1200 м
[Sc Ac trans Ci fib]
+2.0 +0.9 92 +1 +1 1022.2 1020.4 +2.0
06 19.01 Ю 3 35 км 10/0
[As trans]
+5.6 +2.6 81 +2 +4 1021.9 1020.0
09 19.01 ЮВ 2 30 км 10/0
[Cs]
+11.0 +3.2 59 +10 +15 1020.2 1018.3
12 19.01 З 2 30 км 9/1 750 м
[Cu hum Cs]
+12.0 +0.3 45 +11 +12 1019.0 1017.1
15 19.01 З 2 10 км 10/0
[Cs]
+7.0 +4.2 82 +5 +5 1020.8 1018.9 +13.4
18 19.01 Ю 3 10 км ясно +4.8 +3.8 93 +1 +1 1022.1 1020.3
21 19.01 Ю 3 10 км ясно +3.8 +3.0 95 -0 -0 1020.6
00 20.01 Ю 2 10 км ясно +1.4 +0.3 92 -2 -2 1022.8 1021.0
03 20.01 ЮВ 2 10 км 9/0
[Cs]
+0.8 +0.2 96 -3 -3 1023.6 1021.8 +0.8
06 20.01 штиль 0 40 км 5/1 600 м
[Cu hum Ci fib]
+8.0 +1.0 61 +8 +12 1024.9 1023.1
09 20.01 СВ 3 40 км 4/0
[Ci fib]
+11.4 +2.5 54 +10 +15 1024.6 1022.8
12 20.01 СВ 3 35 км 3/0
[Ci fib]
+11.8 +4.7 62 +10 +12 1024.3 1022.4
15 20.01 штиль 0 10 км 8/0
[Cs]
+8.0 +5.8 86 +7 +7 1025.0 1023.2 +12.4
18 20.01 штиль 0 10 км 6/0
[Cs]
+6.0 +4.1 88 +5 +5 1025.0 1023.2
21 20.01 штиль 0 10 км 3/0
[Ci fib]
+4.0 +2.5 90 +3 +3 1026.8 1025.0
00 21.01 штиль 0 10 км ясно +2.0 +0.4 89 +1 +1 1026.8 1025.0
03 21.01 штиль 0 12 км ясно +0.4 -0.2 96 -1 -1 1027.0 1025.2 +0.4
06 21.01 В 2 20 км ясно +8.4 +5.2 80 +7 +10 1026.8 1024.9

 

Местоположение метеостанции Эскандар Кола (Иран): широта 36.45 долгота 52.82 высота над уровнем моря 14 м.

В архиве по умолчанию представлена погода в Эскандар Кола за последнюю неделю. Архивные данные за месяц целиком и за предыдущие месяцы, начиная с января 2011 года, Вы можете получить, выбрав интересующий диапазон дат из раскрывающегося списка и нажав кнопку "Ввод!".


*Определитесь, кто Вы:
робот инопланетянин человек

Внимание! Время в таблицах - всемирное. Для получения местного времени необходимо прибавить поправку, которая равна 3.5 ч.

Смотрите также архив погоды в соседних городах и на ближайших метеорологических станциях:

Погода в Бабольсере (Иран) (34 км)
Погода в Семнане (Иран) (112 км)
Погода в Ноушехре (Иран) (120 км)
Погода в Горгане (Иран) (137 км)
Погода в Эсенгулы (Балканский велаят, Туркменистан) (153 км)
Погода в Тегеране (Иран) (160 км)
Погода в Шахруде (Иран) (191 км)
Погода в Рамсаре (Иран) (198 км)
Погода в Гызылетреке (Балканский велаят, Туркменистан) (217 км)
Погода в Казвине (Иран) (254 км)

Пояснения к столбцам:

Ветер - указаны скорость ветра в м/с - средняя за 10 мин, порывы в срок и между сроками (в фигурных скобках) и направление, откуда дует ветер: С - северный, СВ - северо-восточный, В - восточный, ЮВ - юго-восточный, Ю - южный, ЮЗ - юго-западный, З - западный, СЗ - северо-западный.
Видимость - горизонтальная дальность видимости в метрах или километрах. При видимости от 1 до 10 км при отсутствии осадков обычно наблюдается дымка, при ухудшении видимости до 1 км и менее - туман. В сухую погоду видимость может ухудшаться дымом, пылью или мглою.
Явления - указаны атмосферные явления, наблюдавшиеся в срок или в последний час перед сроком; фигурными скобками обозначены явления, наблюдавшиеся между сроками (за 1-3 часа до срока); квадратными скобками обозначены град или гололедные отложения с указанием их диаметра в мм.
Облачность - указаны через наклонную черту общая и нижняя облачность в баллах и высота нижней границы облаков в метрах; квадратными скобками обозначены формы облаков: Ci - перистые, Cs - перисто-слоистые, Cc - перисто-кучевые, Ac - высококучевые, As - высокослоистые, Sc - слоисто-кучевые, Ns - слоисто-дождевые, Cu - кучевые, Cb - кучево-дождевые. Подробнее классификацию облаков см. в Атласе облаков (PDF).
T - Температура воздуха - температура, измеренная на высоте 2 м над землей.
Td - Температура точки росы - температура, при понижении до которой содержащийся в воздухе водяной пар достигнет насыщения.
f - Относительная влажность воздуха - влажноcть воздуха, измеренная на высоте 2 м над землей.
Te - Эффективная температура - температура, которую ощущает одетый по сезону человек в тени. Характеристика душности погоды. При расчете учитывается влияние влажности воздуха и скорости ветра на теплоощущения человека.
Tes - Эффективная температура на солнце - температура, которую ощущает человек, с поправкой на солнечный нагрев. Характеристика знойности погоды. Зависит от высоты солнца над горизонтом, облачности и скорости ветра. Ночью, в пасмурную погоду, а также при ветре 12 м/с и более поправка равна нулю.
P - Атмосферное давление - приведенное к уровню моря атмосферное давление.
Po - Атмосферное давление - измеренное на уровне метеостанции атмосферное давление.
Tmin - Минимальная температура - минимум температуры воздуха на высоте 2 м над землей.
Tmax - Максимальная температура - максимум температуры воздуха на высоте 2 м над землей.
R - Количество осадков - Количество выпавших осадков за период времени, мм. При наведении курсора мыши на число - период времени, за который выпало указанное количество осадков.
R24 - Количество осадков - Количество выпавших осадков за 24 часа, мм.
S - Снежный покров - Высота снежного покрова, см. При наведении курсора мыши на число - состояние снежного покрова и степень покрытия местности в баллах.